Weather History for KORD - August, 2013

Change the Weather History Date:

Sunday, August 25, 2013

  Actual Average Record
Temperature  
Mean Temperature 77 °F 72 °F  
Max Temperature 89 °F 81 °F 95 °F (1991)
Min Temperature 65 °F 62 °F 47 °F (1964)
Degree Days  
Heating Degree Days 0 0  
Month to date heating degree days 2 0  
Since 1 June heating degree days 54 52  
Since 1 July heating degree days 11 4  
Cooling Degree Days 12 7  
Month to date cooling degree days 167 201  
Year to date cooling degree days 675 703  
Since 1 June cooling degree days 591 649  
Growing Degree Days 26 (Base 50)    
Moisture  
Dew Point 62 °F    
Average Humidity 58    
Maximum Humidity 68    
Minimum Humidity 47    
Precipitation  
Precipitation 0.00 in 0.15 in 1.88 in (1973)
Month to date precipitation 1.26 4.05  
Year to date precipitation 31.94 24.28  
Snow  
Snow 0.00 in 0.00 in 0.00 in ()
Month to date snowfall 0.0 0.0  
Since 1 June snowfall 0.0 0.0  
Since 1 July snowfall 0.0 0.0  
Snow Depth 0.00 in    
Sea Level Pressure  
Sea Level Pressure 30.18 in    
Wind  
Wind Speed 10 mph (SSW)    
Max Wind Speed 18 mph    
Max Gust Speed 23 mph    
Visibility 10 miles    
Events      
T = Trace of Precipitation, MM = Missing Value Source: NWS Daily Summary

Daily Weather History Graph

Daily Weather History Graph

Search for Another Location

Airport or City:

Trip Planner

Search our weather history database for the weather conditions in past years. The results will help you decide how hot, cold, wet, or windy it might be!

Date:

Astronomy

Aug. 25, 2013 Rise Set
Actual Time 6:10 AM CDT 7:36 PM CDT
Civil Twilight 5:41 AM CDT 8:05 PM CDT
Nautical Twilight 5:05 AM CDT 8:40 PM CDT
Astronomical Twilight 4:28 AM CDT 9:17 PM CDT
Moon 10:01 PM CDT (8/25) 11:18 AM CDT (8/25)
Length of Visible Light 14h 24m
Length of Day
13h 26m
Waning Gibbous, 75% of the Moon is Illuminated
Aug 25
Waning Gibbous
Aug 28
Last Quarter
Sep 5
New
Sep 12
First Quarter
Sep 19
Full

Hourly Weather History & Observations

Time (CDT) Temp. Heat Index Dew Point Humidity Pressure Visibility Wind Dir Wind Speed Gust Speed Precip Events Conditions
12:51 AM 68.0 °F - 55.9 °F 65% 30.20 in 10.0 mi South 5.8 mph - N/A   Partly Cloudy
1:51 AM 66.9 °F - 55.0 °F 66% 30.21 in 10.0 mi South 5.8 mph - N/A   Clear
2:51 AM 66.9 °F - 55.0 °F 66% 30.21 in 10.0 mi South 5.8 mph - N/A   Clear
3:51 AM 66.0 °F - 55.0 °F 68% 30.20 in 10.0 mi South 5.8 mph - N/A   Clear
4:51 AM 64.9 °F - 54.0 °F 68% 30.21 in 10.0 mi South 4.6 mph - N/A   Partly Cloudy
5:51 AM 66.9 °F - 54.0 °F 63% 30.22 in 10.0 mi South 4.6 mph - N/A   Partly Cloudy
6:51 AM 69.1 °F - 55.0 °F 61% 30.23 in 10.0 mi SW 3.5 mph - N/A   Scattered Clouds
7:51 AM 72.0 °F - 55.9 °F 57% 30.24 in 10.0 mi SW 6.9 mph - N/A   Mostly Cloudy
8:51 AM 75.0 °F - 57.9 °F 55% 30.24 in 10.0 mi SW 6.9 mph - N/A   Mostly Cloudy
9:51 AM 80.1 °F 81.1 °F 61.0 °F 52% 30.23 in 10.0 mi SW 11.5 mph - N/A   Scattered Clouds
10:51 AM 84.0 °F 85.4 °F 64.0 °F 51% 30.23 in 10.0 mi WSW 12.7 mph - N/A   Scattered Clouds
11:51 AM 84.9 °F 86.1 °F 64.0 °F 49% 30.21 in 10.0 mi SW 11.5 mph 19.6 mph N/A   Partly Cloudy
12:51 PM 87.1 °F 89.2 °F 66.0 °F 49% 30.19 in 10.0 mi SW 10.4 mph 19.6 mph N/A   Clear
1:51 PM 88.0 °F 90.7 °F 66.9 °F 49% 30.18 in 10.0 mi WSW 15.0 mph - N/A   Partly Cloudy
2:51 PM 88.0 °F 90.3 °F 66.0 °F 48% 30.17 in 10.0 mi SSW 17.3 mph 20.7 mph N/A   Partly Cloudy
3:51 PM 89.1 °F 92.1 °F 66.9 °F 48% 30.16 in 10.0 mi SW 11.5 mph 18.4 mph N/A   Partly Cloudy
4:51 PM 88.0 °F 90.7 °F 66.9 °F 49% 30.14 in 10.0 mi SW 13.8 mph - N/A   Partly Cloudy
5:51 PM 87.1 °F 89.9 °F 66.9 °F 51% 30.13 in 10.0 mi SSW 12.7 mph - N/A   Clear
6:51 PM 84.9 °F 87.6 °F 66.9 °F 55% 30.12 in 10.0 mi SSW 15.0 mph - N/A   Clear
7:51 PM 82.9 °F 85.4 °F 66.9 °F 58% 30.13 in 10.0 mi SW 13.8 mph - N/A   Clear
8:51 PM 81.0 °F 83.3 °F 66.9 °F 62% 30.14 in 10.0 mi SSW 8.1 mph - N/A   Clear
9:51 PM 80.1 °F 82.1 °F 66.0 °F 62% 30.15 in 10.0 mi SW 10.4 mph - N/A   Clear
10:51 PM 78.1 °F - 66.0 °F 66% 30.15 in 10.0 mi SSW 9.2 mph - N/A   Clear
11:51 PM 77.0 °F - 64.9 °F 66% 30.15 in 10.0 mi SW 6.9 mph - N/A   Clear